Location: Doschendorf
(50.0069°N, 11.0602°E)
Time: 08:29:16
(UTC+00:00)

Cosmos 397 - Pass Details

Date: 17 November 2019
Orbit: 576 x 2154 km, 65.7° (Epoch: 15 December)

Event Time Altitude Azimuth Distance (km) Brightness Sun altitude
Rises 16:58:19 0° 321° (NW) 2,951 8.4 -14.1°
Reaches altitude 10° 17:00:40 10° 322° (NW) 1,955 7.5 -14.5°
Maximum altitude 17:04:51 86° 49° (NE) 584 4.3 -15.1°
Drops below altitude 10° 17:09:01 10° 141° (SE) 1,943 6.8 -15.8°
Enters shadow 17:10:10 - 142° (SE) 2,430 7.3 -16.0°
